#timestamp,LO_Frequency,Hit,StdDev 
1681815615.8,286047004.2,P
1681815635.6,286047001.2,N
1681815655.5,286047000.8,N
1681815675.3,286046998.5,N
1681815695.1,286046999.5,N
1681815715.9,286046996.7,N
1681815735.7,286046997.9,N
1681815755.6,286046996.2,N
1681815775.4,286046994.5,N
1681815795.2,286046992.3,N
1681815815.1,286046993.1,N
1681815816.0,286046993.1,N
1681815835.8,286046994.2,N
1681815855.6,286046995.9,N
1681815875.5,286046996.2,N
1681815895.3,286046996.3,N
1681815915.1,286046990.2,N
1681815935.9,286046991.4,N
1681815955.7,286046997.1,N
1681815975.6,286047000.7,N
1681815995.4,286047001.2,N
1681816015.2,286047003.1,N
1681816035.1,286047004.6,N
1681816036.0,286047004.6,N
1681816055.8,286047005.6,N
1681816075.6,286047009.2,N
1681816095.5,286047008.6,N
1681816115.3,286047010.5,N
1681816135.2,286047007.8,N
1681816155.9,286047010.8,N
1681816175.7,286047006.5,N
1681816195.6,286047008.7,N
1681816215.4,286047003.0,N
1681816235.2,286047003.6,N
1681816255.1,286047002.7,N
1681816256.0,286047002.7,N
1681816275.8,286047005.9,N
1681816295.7,286047002.9,N
1681816315.5,286047005.2,N
1681816335.3,286047010.7,N
1681816355.2,286047012.0,N
1681816375.0,286047007.8,N
1681816375.9,286047007.8,N
1681816395.8,286047009.5,N
1681816415.6,286047009.8,N
1681816435.4,286047014.0,N
1681816455.3,286047013.7,N
1681816475.1,286047012.8,N
1681816476.0,286047012.8,Y
1681816495.8,286047010.4,P
1681816515.7,286047010.5,P
1681816535.5,286047007.2,P
1681816555.4,286047002.9,N
1681816575.2,286047004.1,N
1681816595.0,286047001.3,N
1681816595.9,286047001.3,N
1681816615.8,286047002.1,N
1681816635.6,286047002.1,N
1681816655.4,286047004.4,N
1681816675.3,286047000.0,N
1681816695.1,286047001.8,N
1681816715.9,286046999.6,N
1681816735.7,286046996.5,N
1681816755.5,286047001.9,N
1681816775.4,286047003.2,N
1681816795.2,286047003.1,N
1681816815.0,286047004.6,N
1681816815.9,286047004.6,N
1681816835.8,286047005.1,N
1681816855.6,286047005.7,N
1681816875.4,286047002.2,N
1681816895.3,286047000.6,N
1681816915.1,286046998.1,N
1681816935.9,286047000.2,N
1681816955.7,286047002.3,N
1681816975.5,286047003.4,N
1681816995.4,286047004.8,N
1681817015.2,286047007.1,N
1681817035.0,286047004.7,N
1681817036.0,286047004.7,N
1681817055.8,286047010.3,Y
1681817075.6,286047004.7,P
1681817095.5,286047005.5,P
1681817115.3,286047001.3,N
1681817135.1,286047001.1,N
1681817155.9,286046999.0,N
1681817175.7,286046998.3,N
1681817195.6,286046994.9,N
1681817215.4,286046995.4,N
1681817235.2,286046997.8,N
1681817255.1,286046997.4,N
1681817256.0,286046997.4,N
1681817275.8,286046996.7,N
1681817295.6,286046997.8,N
1681817315.5,286046998.2,N
1681817335.3,286047000.3,N
1681817355.1,286047003.1,N
1681817375.9,286047002.9,N
1681817395.7,286047007.0,N
1681817415.6,286047006.2,N
1681817435.4,286047010.6,N
1681817455.2,286047006.6,N
1681817475.1,286047008.9,N
1681817476.0,286047008.9,N
1681817495.8,286047008.2,N
1681817515.6,286047009.9,N
1681817535.5,286047013.9,N
1681817555.3,286047011.3,N
1681817575.2,286047009.7,N
1681817595.9,286047014.0,N
1681817615.7,286047013.6,N
1681817635.6,286047008.0,N
1681817655.4,286047006.6,N
1681817675.2,286047006.8,N
1681817695.1,286047008.8,N
1681817696.0,286047008.8,N
1681817715.8,286047008.7,N
1681817735.7,286047009.0,N
1681817755.5,286047009.1,N
1681817775.3,286047008.3,N
1681817795.2,286047005.8,N
1681817815.0,286047003.4,N
1681817815.9,286047003.4,N
1681817835.7,286047007.6,N
1681817855.6,286047005.4,N
1681817875.4,286047004.1,N
1681817895.3,286047005.0,N
1681817915.1,286047004.9,N
1681817935.9,286047005.7,N
1681817955.7,286047005.0,N
1681817975.5,286047003.6,N
1681817995.4,286047000.8,N
1681818015.2,286047001.5,N
1681818035.0,286047007.5,N
1681818035.9,286047007.5,N
1681818055.8,286047007.0,N
1681818075.6,286047005.0,N
1681818095.5,286047009.0,N
1681818115.3,286047010.4,Y
1681818135.2,286047002.4,P
1681818155.9,286047000.8,N
1681818175.7,286047000.5,N
1681818195.6,286046998.3,N
1681818215.4,286046998.5,N
1681818235.2,286046999.4,N
1681818255.1,286046998.0,N
1681818256.0,286046998.0,N
1681818275.8,286046998.9,N
1681818295.7,286046997.4,N
1681818315.5,286046995.7,N
1681818335.3,286046994.7,N
1681818355.2,286046992.1,N
1681818375.0,286046994.4,N
1681818375.9,286046994.4,N
1681818395.7,286046994.6,N
1681818415.6,286046991.9,N
1681818435.4,286046996.4,N
1681818455.3,286046999.6,N
1681818475.1,286046997.0,N
1681818476.0,286046997.0,N
1681818495.8,286046995.0,N
1681818515.7,286046998.0,N
1681818535.5,286046994.5,N
1681818555.3,286046999.4,N
1681818575.2,286046999.4,N
1681818595.0,286046999.1,N
1681818595.9,286046999.1,N
1681818615.8,286047001.7,N
1681818635.6,286047006.3,N
1681818655.4,286047010.2,Y
1681818675.3,286047009.1,P
1681818695.1,286047001.8,N
1681818715.9,286047001.8,N
1681818735.7,286047001.4,N
1681818755.5,286047005.5,N
1681818775.4,286047006.5,N
1681818795.2,286047009.0,N
1681818815.0,286047005.0,N
1681818815.9,286047005.0,N
1681818835.8,286047002.5,N
1681818855.6,286047003.6,N
1681818875.5,286047009.9,Y
1681818895.3,286047007.1,P
1681818915.1,286047004.2,N
1681818935.9,286047004.0,N
1681818955.7,286047002.5,N
1681818975.5,286047001.4,N
1681818995.4,286047001.9,N
1681819015.2,286047004.3,N
1681819035.0,286047004.0,N
1681819036.0,286047004.0,N
1681819055.8,286047001.3,N
1681819075.6,286046998.6,N
1681819095.5,286047002.9,N
1681819115.3,286047004.6,N
1681819135.1,286047007.9,Y
1681819155.9,286047001.5,P
1681819175.7,286046999.8,N
1681819195.6,286046996.9,N
